FW8865 Weather Reports


time (UTC)temp
F
wind
direction
speed
knots
gust
knots
rain 1hr
in
rain 24hr
in
rain mn
in
humidity
%
barometer
mb
20260505171216 57 23 1.7 1.7 0.00 0.00 0.00 46 1003.5
20260505170216 57 0.0 0.9 0.00 0.00 0.00 45 1003.8
20260505165216 57 338 0.9 2.6 0.00 0.00 0.00 45 1003.5
20260505164216 56 293 1.7 2.6 0.00 0.00 0.00 48 1003.7
20260505163216 55 0.0 0.9 0.00 0.00 0.00 50 1003.7
20260505162216 55 293 2.6 3.5 0.00 0.00 0.00 52 1003.7
20260505161236 54 293 1.7 2.6 0.00 0.00 0.00 54 1003.9
20260505160236 53 338 2.6 4.3 0.00 0.00 0.00 54 1004.1
20260505153216 53 315 3.5 5.2 0.00 0.00 0.00 55 1004.1
20260505152216 53 293 2.6 4.3 0.00 0.00 0.00 57 1004.3
20260505151236 52 293 3.5 5.2 0.00 0.00 0.00 62 1004.7
20260505150218 52 338 2.6 5.2 0.00 0.00 0.00 63 1004.6
20260505140217 53 293 1.7 4.3 0.00 0.00 0.00 58 1004.8
20260505130237 57 270 0.9 2.6 0.00 0.00 0.00 40 1003.8
20260505124217 57 270 0.9 1.7 0.00 0.00 0.00 40 1003.2
20260505123217 57 248 1.7 2.6 0.00 0.00 0.00 40 1003.3
20260505122238 57 248 1.7 2.6 0.00 0.00 0.00 40 1003.1
20260505121217 57 248 1.7 3.5 0.00 0.00 0.00 40 1003.2
20260505120217 57 270 1.7 2.6 0.00 0.00 0.00 39 1003.1
20260505115217 57 248 1.7 3.5 0.00 0.00 0.00 39 1003.0
20260505114217 57 248 1.7 2.6 0.00 0.00 0.00 39 1003.0
20260505113217 57 248 1.7 3.5 0.00 0.00 0.00 39 1002.9
20260505112217 57 270 1.7 2.6 0.00 0.00 0.00 39 1003.0
20260505111217 57 270 0.9 1.7 0.00 0.00 0.00 38 1002.9
20260505110217 57 270 0.9 1.7 0.00 0.00 0.00 38 1003.5
20260505102217 58 248 0.9 2.6 0.00 0.00 0.00 38 1003.6
20260505101217 58 248 0.9 1.7 0.00 0.00 0.00 37 1003.2
20260505100217 58 0.0 1.7 0.00 0.00 0.00 36 1003.1
20260505095237 58 248 0.9 1.7 0.00 0.00 0.00 36 1003.0
20260505094358 58 0.0 0.9 0.00 0.00 0.00 36 1003.2
20260505093217 59 0.0 0.0 0.00 0.00 0.00 35 1003.1
20260505092217 59 0.0 0.0 0.00 0.00 0.00 34 1003.2
20260505091217 59 270 0.9 1.7 0.00 0.00 0.00 34 1002.9
20260505090217 59 270 0.9 3.5 0.00 0.00 0.00 34 1002.6
20260505085217 60 293 0.9 1.7 0.00 0.00 0.00 34 1003.0
20260505084216 60 293 0.9 1.7 0.00 0.00 0.00 34 1003.0
20260505083216 60 270 0.9 1.7 0.00 0.00 0.00 34 1002.7
20260505082217 60 270 2.6 4.3 0.00 0.00 0.00 35 1002.7
20260505081217 60 270 3.5 5.2 0.00 0.00 0.00 35 1002.9
20260505080238 60 248 1.7 2.6 0.00 0.00 0.00 34 1003.1
20260505075238 61 270 2.6 3.5 0.00 0.00 0.00 34 1003.6
20260505074216 61 270 2.6 4.3 0.00 0.00 0.00 33 1003.3
20260505073216 61 248 1.7 2.6 0.00 0.00 0.00 33 1003.3
20260505072216 62 248 2.6 3.5 0.00 0.00 0.00 32 1003.3
20260505071217 62 270 2.6 5.2 0.00 0.00 0.00 32 1003.3
20260505070216 63 248 3.5 6.1 0.00 0.00 0.00 31 1002.9
20260505065216 63 248 1.7 2.6 0.00 0.00 0.00 31 1003.2
20260505064216 63 225 2.6 3.5 0.00 0.00 0.00 30 1003.3
20260505063216 63 248 2.6 4.3 0.00 0.00 0.00 30 1003.1
20260505062218 64 270 3.5 4.3 0.00 0.00 0.00 29 1002.6
20260505061216 64 248 3.5 5.2 0.00 0.00 0.00 29 1002.6
20260505060216 64 248 3.5 6.1 0.00 0.00 0.00 28 1002.6
20260505055216 65 248 2.6 4.3 0.00 0.00 0.00 28 1002.7
20260505054236 65 248 3.5 5.2 0.00 0.00 0.00 27 1002.7
20260505053216 65 270 2.6 4.3 0.00 0.00 0.00 27 1002.7
20260505052216 65 270 3.5 4.3 0.00 0.00 0.00 27 1002.6
20260505051216 65 248 2.6 3.5 0.00 0.00 0.00 27 1002.5
20260505050217 65 248 1.7 2.6 0.00 0.00 0.00 27 1002.1
20260505041216 67 248 2.6 3.5 0.00 0.00 0.00 27 1002.2
20260505040216 67 248 2.6 4.3 0.00 0.00 0.00 27 1001.5
20260505035216 67 248 1.7 5.2 0.00 0.00 0.00 27 1002.1
20260505034216 67 225 4.3 5.2 0.00 0.00 0.00 27 1002.0
20260505033216 68 248 3.5 5.2 0.00 0.00 0.00 27 1001.2
20260505032216 68 248 1.7 3.5 0.00 0.00 0.00 26 1001.0
20260505031216 68 248 2.6 3.5 0.00 0.00 0.00 26 1001.0
20260505030218 69 270 4.3 7.8 0.00 0.00 0.00 26 1000.9
20260505025218 69 270 2.6 3.5 0.00 0.00 0.00 25 1001.4
20260505024218 69 270 3.5 8.7 0.00 0.00 0.00 25 1001.4
20260505023218 70 270 2.6 3.5 0.00 0.00 0.00 25 1001.0
20260505022218 70 270 3.5 6.1 0.00 0.00 0.00 24 1001.4
20260505021217 70 270 3.5 4.3 0.00 0.00 0.00 23 1001.3
20260505020217 71 270 3.5 5.2 0.00 0.00 0.00 23 1000.7
20260505015238 71 270 2.6 3.5 0.00 0.00 0.00 23 1001.2
20260505014217 72 270 2.6 3.5 0.00 0.00 0.00 23 1000.8
20260505013238 72 270 3.5 5.2 0.00 0.00 0.00 23 1000.7
20260505012217 72 270 3.5 4.3 0.00 0.00 0.00 23 1000.5
20260505011217 72 248 4.3 9.6 0.00 0.00 0.00 22 1000.4
20260505010217 73 248 2.6 5.2 0.00 0.00 0.00 22 1000.7
20260505005217 73 270 3.5 5.2 0.00 0.00 0.00 22 1000.7
20260505004217 73 248 2.6 5.2 0.00 0.00 0.00 21 1000.9
20260505003218 74 270 2.6 4.3 0.00 0.00 0.00 21 1000.7
20260505002217 74 248 3.5 7.8 0.00 0.00 0.00 20 1000.9
20260505001217 74 248 2.6 4.3 0.00 0.00 0.00 19 1001.0
20260505000218 74 248 7.0 13.0 0.00 0.00 0.00 19 1000.9
20260504235217 74 248 5.2 12.2 0.00 0.00 0.00 19 1000.9
20260504234218 74 225 3.5 4.3 0.00 0.00 0.00 19 1000.9
20260504233217 74 248 3.5 9.6 0.00 0.00 0.00 18 1001.1
20260504232217 74 248 5.2 9.6 0.00 0.00 0.00 17 1001.1
20260504231217 74 248 4.3 8.7 0.00 0.00 0.00 17 1001.0
20260504230217 74 248 3.5 6.1 0.00 0.00 0.00 17 1001.1
20260504225217 74 225 4.3 10.4 0.00 0.00 0.00 17 1001.2
20260504224217 75 248 3.5 7.8 0.00 0.00 0.00 17 1001.2
20260504223217 75 203 2.6 4.3 0.00 0.00 0.00 18 1001.6
20260504222218 75 225 5.2 13.0 0.00 0.00 0.00 17 1001.7
20260504221238 75 248 3.5 6.1 0.00 0.00 0.00 17 1001.9
20260504220217 75 225 5.2 9.6 0.00 0.00 0.00 17 1001.9
20260504215217 75 225 2.6 4.3 0.00 0.00 0.00 18 1001.8
20260504214217 75 225 4.3 11.3 0.00 0.00 0.00 18 1001.9
20260504213217 75 248 2.6 5.2 0.00 0.00 0.00 18 1002.1
20260504212217 75 225 3.5 7.8 0.00 0.00 0.00 19 1002.2
20260504211216 76 248 4.3 8.7 0.00 0.00 0.00 19 1002.6
20260504210217 76 248 4.3 8.7 0.00 0.00 0.00 18 1003.0
20260504205217 74 225 3.5 7.8 0.00 0.00 0.00 20 1002.9
20260504204217 73 315 2.6 6.1 0.00 0.00 0.00 22 1003.6
20260504203257 74 270 4.3 8.7 0.00 0.00 0.00 21 1003.7
20260504202217 74 203 2.6 3.5 0.00 0.00 0.00 22 1003.9
20260504201216 73 270 2.6 5.2 0.00 0.00 0.00 22 1004.3
20260504200216 73 225 2.6 5.2 0.00 0.00 0.00 22 1004.4
20260504195236 72 225 3.5 6.1 0.00 0.00 0.00 22 1004.2
20260504194216 73 248 3.5 6.1 0.00 0.00 0.00 22 1004.3
20260504193216 71 225 1.7 3.5 0.00 0.00 0.00 23 1004.8
20260504192216 71 270 2.6 5.2 0.00 0.00 0.00 23 1004.8
20260504191217 71 270 2.6 4.3 0.00 0.00 0.00 22 1005.0
20260504190216 71 225 2.6 4.3 0.00 0.00 0.00 25 1004.8
20260504185216 71 225 1.7 3.5 0.00 0.00 0.00 25 1004.6
20260504184217 70 248 4.3 11.3 0.00 0.00 0.00 25 1005.0
20260504183216 70 270 3.5 6.1 0.00 0.00 0.00 25 1005.1
20260504182216 70 158 3.5 8.7 0.00 0.00 0.00 26 1005.6
20260504181216 69 248 4.3 7.8 0.00 0.00 0.00 27 1005.7
20260504180236 69 225 1.7 3.5 0.00 0.00 0.00 25 1005.7
20260504175257 69 248 2.6 5.2 0.00 0.00 0.00 24 1005.8
20260504174216 69 225 2.6 3.5 0.00 0.00 0.00 24 1005.9
20260504173216 68 203 1.7 3.5 0.00 0.00 0.00 26 1006.1
20260504172216 68 203 3.5 7.8 0.00 0.00 0.00 27 1006.6